シュヴァスマン-ヴァハマン第3彗星

73P/Schwassmann-Wachmann 3 (2011)

English version
Home page
Updated on March 3, 2018

---------------------------------------------------------------------

・ プロフィール

・ 写真集

・ 軌道要素

Epoch 2011 Oct. 6.0 TT = JDT 2455840.5
T 2011 Oct. 16.89347 TT                                 MPC
q   0.9427968            (2000.0)            P               Q
n   0.18382640     Peri.  198.86377     -0.02850687     +0.98228417
a   3.0633560      Node    69.84463     -0.88986542     +0.05946540
e   0.6922340      Incl.   11.37904     -0.45533163     -0.17771233
P   5.36
From 2786 observations 2000 Nov. 7-2010 Dec. 17, mean residual 0"..
     Nongravitational parameters A1 = +0.76, A2 = +0.0258.

・ 星図

・ 光度変化

	C核:
        m1 =  9.7 + 5 logΔ + 16.5 log r  [   ,-76]  (              〜2011年 8月 1日)
        m1 = 11.2 + 5 logΔ +  6.5 log r  [-76,  0]  (2011年 8月 1日〜2011年10月16日)
        m1 = 11.4 + 5 logΔ + 15.0 log r  [  0,   ]  (2011年10月16日〜              )

	B核:
        m1 = 12.0 + 5 logΔ + 20.0 log r(t + 30)

---------------------------------------------------------------------

軌道要素はM.P.E.C. 2010-Y12に掲載されたものです。
星図は StellaNavigator Ver.2.0 for Windows (アストロアーツ編著 / アスキー出版局刊) で作成したものです。
光度グラフはComet for Windowsで作成したものです。

---------------------------------------------------------------------

Copyright(C) Seiichi Yoshida (comet@aerith.net). All rights reserved.